Wind_Speed
28 27 27 27 25 23 22 21 20 20 20 20 20 20 19 18 18 17 17 17 16 14 14 13 13 13 13 13 13 14 14 14 14 13 13 13 13 12 12 13 14 15 15 15 15 16 15 15 14 14 14 15 15 15 16 16 16 16 16 16 16 16 16 16 17 18 18 18 19 20 21 23 24 25 26 27 27 28 28 29 30 31 31 31 32
28 28 29 28 26 25 26 26 25 24 22 22 22 22 21 21 21 21 20 20 20 19 18 18 17 16 16 15 15 15 16 17 17 17 16 16 15 15 15 15 14 15 15 16 17 17 18 18 17 16 17 17 17 18 18 18 19 19 19 19 18 18 17 17 18 19 19 19 20 20 21 21 23 24 26 26 27 27 28 28 29 31 32 32 33
26 26 28 27 26 26 27 27 28 26 24 23 23 23 23 23 23 23 23 23 24 23 23 22 21 21 20 19 18 18 18 19 19 20 19 19 19 19 19 19 18 17 16 17 17 18 19 20 20 20 20 20 20 21 21 21 21 22 21 21 21 20 19 19 20 21 22 21 21 22 22 22 22 23 25 26 26 27 28 28 29 30 31 32 32
28 28 28 27 26 27 27 27 28 27 24 23 24 24 25 25 25 25 26 27 27 26 26 25 25 25 25 24 23 22 22 22 22 22 22 22 22 22 23 23 22 21 20 19 19 19 20 21 22 22 23 23 23 23 24 24 24 24 24 24 24 24 23 23 23 24 25 24 23 23 23 23 23 23 24 25 26 27 28 29 30 31 31 32 33
26 27 28 28 29 30 29 26 25 24 23 23 24 25 26 27 27 27 28 29 30 29 30 29 28 28 28 28 27 26 26 25 25 25 24 24 25 26 26 26 26 25 24 23 22 21 21 22 23 24 24 25 25 26 26 27 27 27 28 28 28 28 27 26 26 26 27 26 26 25 25 24 24 24 24 25 25 26 28 29 30 31 32 33 34
23 24 26 29 32 33 29 24 22 22 24 26 27 27 28 28 28 29 30 31 32 33 33 32 30 30 31 31 31 30 29 28 29 29 27 27 28 28 29 29 29 28 28 27 26 24 23 23 24 24 25 26 27 28 28 29 29 29 30 31 31 31 31 30 29 29 28 28 28 28 27 26 25 25 25 26 26 26 27 28 30 31 32 33 34
25 26 26 25 28 29 27 26 27 28 28 28 28 28 29 30 30 31 31 33 34 35 35 34 33 33 34 35 35 34 33 31 31 31 29 29 29 30 31 31 31 31 31 31 30 28 26 25 25 25 26 27 28 29 30 30 31 31 32 32 33 33 33 33 32 31 31 31 31 31 30 29 28 27 26 27 28 27 28 29 29 30 32 33 34
22 23 22 20 20 22 23 25 27 28 28 28 28 28 29 31 33 34 34 35 36 36 35 36 36 36 37 37 37 37 37 36 34 33 32 31 30 31 32 33 33 33 32 32 32 31 30 28 27 27 27 28 29 30 31 32 33 33 33 34 34 34 34 35 34 34 34 33 33 33 33 33 32 31 30 30 30 30 29 30 30 30 31 33 34
25 26 26 24 22 22 23 24 25 26 27 28 29 30 31 32 34 36 37 38 38 38 38 39 40 39 38 38 39 39 38 37 37 36 35 34 32 32 33 34 35 35 35 34 34 34 33 31 30 29 29 29 30 31 32 34 34 35 35 36 36 36 36 36 36 36 36 36 35 35 35 35 34 34 34 35 35 33 32 32 31 31 31 32 33
27 28 29 28 27 27 28 28 28 30 31 31 31 33 34 35 36 37 38 39 40 41 42 42 43 42 40 39 41 41 40 37 37 38 39 38 36 34 34 35 36 37 37 36 36 36 34 33 32 31 31 31 31 32 34 35 36 36 37 37 38 38 38 38 38 38 38 38 37 37 37 37 36 35 35 35 36 37 36 35 34 33 33 33 33
27 27 27 27 28 29 29 29 29 30 31 31 32 33 35 37 38 38 40 41 41 42 43 45 46 45 43 42 43 43 40 37 36 37 39 40 39 38 37 37 38 39 39 38 38 38 36 36 35 34 33 33 33 34 35 36 37 38 38 38 39 39 39 39 39 39 39 40 40 39 40 39 39 38 37 36 36 37 38 37 37 36 36 36 35
28 28 27 27 28 28 29 29 30 30 30 31 32 33 35 36 38 39 40 41 41 41 42 43 44 44 43 43 43 43 41 39 38 39 39 40 41 41 41 40 40 41 41 40 39 39 38 38 38 37 36 35 35 36 37 38 38 38 38 39 39 39 40 40 41 41 41 42 42 42 42 42 42 42 41 40 38 37 38 39 38 38 39 39 38
27 27 27 27 27 28 29 29 30 31 31 31 32 33 34 35 37 39 39 40 40 40 40 41 41 42 42 41 40 41 41 39 38 39 39 40 41 42 43 43 43 43 43 42 40 40 40 41 42 41 40 38 38 38 39 40 40 40 39 39 39 40 40 41 41 42 43 44 44 44 44 44 45 45 45 44 43 41 40 39 39 40 40 41 41
26 26 25 26 26 27 27 28 29 30 30 31 31 32 33 34 36 37 38 39 40 39 39 39 40 40 40 40 40 40 39 37 37 38 39 39 40 42 44 44 45 45 45 44 44 44 44 45 46 46 44 42 41 41 41 41 41 41 41 40 40 41 41 42 42 43 44 45 46 46 46 46 47 47 47 47 47 46 44 43 42 42 42 43 43
27 26 26 26 26 27 27 27 28 28 28 29 30 31 33 34 35 36 36 37 38 39 40 39 39 38 38 38 38 38 37 37 37 38 39 39 39 40 43 45 46 46 45 44 44 45 46 46 47 48 48 47 45 43 42 43 43 43 43 43 42 43 43 43 44 44 44 45 46 47 47 47 48 48 48 48 48 48 48 47 46 45 45 45 45
27 27 28 28 28 29 30 30 30 30 30 30 29 30 31 32 34 35 36 36 37 38 39 40 39 38 37 37 36 36 36 37 37 37 37 37 38 39 42 45 45 44 43 43 44 45 46 46 47 49 50 50 48 46 44 44 45 45 45 46 45 46 46 46 46 45 45 46 48 48 48 48 48 48 48 48 49 49 49 49 49 49 49 48 48
27 27 28 29 30 30 31 32 33 33 32 32 32 32 32 32 33 34 36 37 37 37 38 39 39 38 37 36 35 35 35 36 37 37 37 36 37 38 40 42 43 42 42 43 45 46 47 47 47 49 50 50 49 47 46 46 46 47 47 48 48 48 49 48 48 48 48 48 49 49 49 49 49 49 49 49 49 50 51 50 50 51 51 51 51
26 27 27 29 30 31 32 33 34 34 34 34 34 34 34 34 34 35 36 37 38 38 37 38 38 38 37 37 36 36 35 36 38 39 37 36 36 37 38 39 41 41 42 44 46 46 46 46 46 47 48 48 48 47 46 47 49 49 49 49 49 49 49 49 49 50 51 51 50 50 49 49 49 49 50 50 51 51 52 52 52 52 53 53 54
28 29 29 29 30 31 32 33 34 35 35 35 36 36 36 36 36 36 36 37 37 37 37 37 36 36 36 38 39 39 39 39 39 38 35 35 36 36 37 39 40 42 44 45 45 44 44 44 44 45 46 46 46 46 46 48 49 50 51 51 51 50 49 49 50 51 52 52 52 51 51 50 50 50 50 51 51 52 53 53 54 55 55 55 56
32 33 33 33 33 33 34 34 35 36 36 35 35 36 36 37 37 37 37 37 36 35 35 35 34 34 36 38 40 42 42 40 37 35 33 34 35 36 38 40 42 43 44 44 43 42 42 43 44 45 46 46 46 46 47 48 49 50 52 52 52 51 50 51 52 52 52 53 52 52 52 52 51 51 51 51 52 52 52 53 55 56 56 56 57
37 38 38 37 36 36 36 36 36 36 35 34 34 35 35 36 37 37 37 37 35 34 32 32 33 34 34 35 37 41 42 40 36 34 35 36 37 39 40 41 42 42 42 42 42 41 42 42 42 44 46 47 47 47 48 48 49 50 51 52 52 52 52 52 52 52 52 52 52 52 53 53 53 52 52 51 52 52 53 54 56 56 56 57 57
41 42 42 41 40 38 37 37 37 35 33 32 32 33 34 34 35 35 34 34 33 32 31 31 32 33 33 33 35 38 39 39 38 37 38 38 39 39 40 40 40 40 40 40 40 40 41 42 43 45 46 47 47 48 49 49 49 50 51 52 52 52 52 52 52 52 52 52 52 52 52 53 53 52 52 52 52 53 54 55 56 57 57 57 57
44 44 44 43 41 39 38 37 36 34 32 31 32 33 33 33 33 32 31 31 31 31 31 32 32 32 32 33 35 35 36 37 37 37 38 38 37 36 36 36 36 37 38 39 40 41 42 43 44 45 45 46 47 48 48 49 49 50 50 51 52 52 52 52 51 51 51 51 52 52 52 52 51 51 51 51 52 52 53 54 55 56 56 56 56
46 45 45 44 42 39 38 36 34 33 33 33 33 33 32 31 30 30 30 30 31 31 33 33 33 32 33 35 35 35 36 37 36 35 35 33 32 32 33 33 34 35 37 39 40 42 43 43 44 44 45 46 46 47 48 48 49 50 50 51 51 51 51 51 51 51 51 52 52 52 51 50 50 50 50 50 50 51 52 52 52 52 52 53 53
46 45 44 43 41 38 37 35 34 33 34 34 33 31 31 30 29 29 29 30 31 31 32 33 33 33 34 36 36 36 35 35 33 31 29 28 28 30 31 32 34 35 37 38 39 40 42 42 43 44 45 46 47 47 48 49 49 50 50 50 51 51 51 51 51 51 52 52 51 51 50 49 48 48 48 48 48 48 48 47 47 47 47 48 48
44 43 42 40 39 38 36 34 32 33 34 33 31 29 29 29 28 29 30 30 30 30 32 33 34 34 35 36 35 33 31 29 27 25 24 25 27 28 30 31 32 33 34 35 36 38 39 41 42 43 44 45 46 47 48 49 49 50 50 50 51 51 51 51 51 50 50 49 48 47 47 46 46 46 44 43 43 42 40 40 40 40 40 41 41
40 39 38 37 37 37 35 32 31 32 31 29 27 27 28 27 28 29 31 31 30 30 32 34 34 35 35 34 32 29 25 23 21 21 22 24 26 28 28 29 30 30 31 33 35 36 38 39 40 42 43 44 45 46 47 48 48 49 49 50 49 49 50 50 49 49 47 44 42 42 42 41 40 38 36 35 34 32 30 31 32 33 33 34 36
37 36 35 34 33 34 33 30 29 28 27 25 25 25 26 26 28 29 30 30 31 32 34 36 37 35 33 30 27 23 20 18 18 19 21 23 24 25 26 26 27 29 30 31 33 34 36 38 39 40 41 42 43 44 44 46 47 48 48 48 48 47 47 47 46 44 41 38 37 37 35 31 29 28 27 28 27 26 26 28 30 31 31 33 35
35 34 32 31 32 33 31 27 24 24 25 24 24 24 24 25 27 29 31 33 34 36 37 36 34 31 27 24 20 18 16 16 17 18 20 21 22 22 23 24 26 27 28 30 31 33 34 35 37 37 39 40 41 41 42 43 44 44 44 45 44 44 43 42 41 38 35 34 33 32 29 26 24 24 25 26 26 26 28 29 30 30 31 33 35
33 32 30 30 32 32 28 24 22 23 24 24 24 24 24 25 26 28 30 32 33 32 30 28 25 22 19 16 14 13 13 14 15 16 17 18 19 20 21 23 24 26 27 28 29 31 32 33 34 36 37 38 39 40 40 41 41 41 41 40 40 39 39 38 36 34 32 32 30 28 27 26 26 27 28 28 27 27 27 27 27 28 29 30 31
35 33 31 30 28 27 24 23 23 24 25 24 24 25 26 26 29 30 30 30 28 26 23 20 18 15 12 10 10 10 11 12 13 14 15 17 18 19 20 22 23 24 26 27 28 30 32 33 33 34 35 36 36 37 37 37 37 37 37 36 36 36 35 34 33 32 31 31 29 28 28 28 29 28 28 27 25 24 24 25 27 28 28 27 27
33 30 27 25 24 22 22 22 23 24 23 23 25 27 28 29 30 31 29 27 24 21 18 16 13 10 9 9 9 9 10 11 12 13 14 15 17 18 20 22 23 25 27 28 29 30 32 33 33 34 34 34 34 33 33 33 33 33 33 33 32 32 32 32 31 31 30 30 28 28 29 31 32 30 27 24 23 24 25 26 28 28 28 28 28
26 24 23 22 22 21 21 22 24 25 25 25 27 29 29 27 28 28 25 22 19 16 14 12 10 9 9 8 8 8 9 10 11 12 13 15 16 18 20 22 24 25 26 27 29 30 31 32 33 33 32 32 31 30 29 29 29 29 29 29 30 30 30 30 30 30 29 29 29 28 29 30 30 27 25 24 25 26 26 27 29 29 29 29 30
23 23 23 23 23 22 22 24 26 27 27 27 26 24 22 21 19 19 17 16 14 12 11 10 9 8 8 7 7 7 9 10 11 12 13 14 16 18 21 23 25 25 26 28 30 31 32 32 32 32 30 29 28 28 27 27 27 27 27 27 27 27 27 28 29 29 29 29 29 29 29 30 28 26 26 26 27 27 27 28 29 30 30 29 29
24 23 22 22 23 24 26 27 27 26 25 24 23 22 21 20 18 16 14 12 10 10 10 9 9 8 7 6 6 7 9 9 10 10 12 14 17 19 22 24 25 26 27 29 31 32 33 33 32 31 29 28 26 26 25 25 25 25 24 24 23 23 24 26 27 27 28 28 27 27 28 30 29 28 28 30 30 30 30 29 30 30 29 28 27
21 21 21 23 25 28 30 30 28 26 24 24 23 22 21 19 16 14 12 11 10 10 10 9 8 7 6 5 6 7 8 8 9 11 13 15 18 20 21 23 25 27 28 30 32 33 34 33 32 30 29 27 25 25 25 24 23 22 21 20 20 19 20 21 22 24 25 26 26 25 26 27 27 27 29 31 31 31 30 31 31 31 30 29 28
19 22 24 25 27 29 29 29 27 25 24 24 22 20 19 17 15 14 12 11 11 10 9 8 6 5 5 4 5 6 7 8 10 12 14 16 18 20 22 25 27 29 30 32 33 34 35 34 32 30 28 26 25 25 25 23 22 20 18 18 17 16 16 17 18 20 21 22 22 22 22 22 22 24 26 27 26 27 28 29 29 30 30 29 28
25 27 28 29 30 31 30 29 27 25 24 22 21 19 18 17 16 15 13 11 10 9 8 6 5 3 3 3 4 6 8 9 10 12 14 17 19 22 24 27 28 29 31 32 34 35 35 34 32 30 29 27 26 26 25 22 20 18 17 16 15 15 14 14 15 15 16 16 16 15 15 15 16 18 20 21 22 24 25 26 25 25 26 26 26
33 33 33 32 32 31 29 28 27 25 24 23 21 20 18 17 16 13 11 9 8 7 5 3 2 2 3 4 6 7 9 10 12 14 16 18 20 23 25 27 29 30 31 33 34 35 34 33 31 30 29 28 27 26 25 22 19 18 17 16 15 13 12 12 11 11 10 10 9 9 10 11 13 16 18 20 22 23 23 24 23 23 23 23 23
33 33 31 30 29 28 27 26 25 25 24 23 21 19 17 15 12 10 7 6 5 4 2 1 1 2 3 5 6 7 9 10 12 14 16 18 20 22 25 27 29 29 31 33 34 34 34 33 31 30 29 28 27 27 25 23 20 19 17 16 14 12 10 9 8 7 6 6 7 8 10 13 15 17 18 19 20 20 21 21 21 20 20 19 20
29 29 28 27 27 26 25 24 24 24 23 21 19 17 14 12 9 7 4 3 2 2 1 0 1 2 3 4 5 6 8 10 11 13 16 18 20 23 25 27 28 29 31 33 34 34 34 32 31 30 29 27 26 26 25 23 21 20 18 16 14 12 9 7 5 4 3 5 7 9 12 13 14 15 14 13 14 15 15 15 15 15 15 15 15
26 25 24 24 24 23 22 22 22 21 20 18 17 14 11 9 7 4 2 1 1 0 1 1 1 2 2 4 5 6 8 10 12 14 16 18 20 22 24 26 27 29 31 33 34 34 33 32 30 29 28 27 26 26 26 24 23 21 20 17 14 11 8 5 2 1 3 5 8 10 12 12 12 11 9 9 9 9 9 8 8 9 10 11 10
22 21 20 21 21 20 20 20 19 18 17 16 13 11 8 6 4 3 1 1 1 1 1 1 1 2 3 4 6 7 8 10 12 14 16 18 19 21 23 25 27 28 30 32 32 33 32 31 29 28 26 26 26 26 26 25 24 23 21 17 13 10 8 5 2 2 3 4 7 11 12 10 8 6 5 5 5 5 5 4 5 6 8 9 9
20 18 18 19 19 18 17 17 16 15 14 12 10 8 6 5 3 2 2 2 2 1 1 1 2 3 4 5 6 7 9 11 13 14 15 17 18 20 22 25 26 27 29 30 30 31 31 30 28 26 25 25 25 26 26 25 24 23 21 18 13 10 7 5 3 2 3 4 7 10 11 7 3 2 3 2 3 3 2 2 4 7 10 12 12
17 17 16 16 16 16 15 14 13 12 11 10 8 7 5 4 4 4 3 3 1 0 1 2 3 4 5 6 7 8 10 12 13 14 15 17 18 20 22 24 25 26 28 29 29 29 29 29 27 26 26 26 26 26 26 24 22 21 21 19 15 11 8 5 3 2 3 3 4 6 8 7 5 3 3 2 2 3 4 6 9 13 15 14 11
16 15 15 14 13 13 13 12 11 10 9 8 6 5 5 5 5 5 4 3 2 1 2 4 5 6 7 7 8 9 11 13 14 15 15 16 17 19 21 24 25 26 27 27 27 28 28 28 27 26 26 28 28 28 27 25 22 20 19 17 15 11 9 6 3 2 4 3 2 2 4 5 6 6 5 4 5 7 8 10 13 15 14 11 10
15 14 14 13 12 12 11 10 9 8 7 7 6 6 6 6 6 5 4 3 2 3 4 5 6 6 7 8 9 10 11 13 14 15 16 16 17 18 21 23 24 25 26 26 27 27 27 26 25 26 27 28 29 29 28 26 24 21 19 16 14 11 9 7 3 2 5 6 3 2 4 3 0 1 3 4 5 7 8 10 12 11 8 8 11
14 14 13 12 12 11 10 9 8 8 7 7 8 7 7 7 6 5 4 4 4 4 5 6 6 7 8 9 10 11 12 13 14 15 16 16 16 18 20 23 23 24 25 25 26 26 27 26 25 25 27 29 30 31 30 29 26 23 20 17 14 12 10 8 4 1 4 6 5 4 5 3 2 3 3 1 3 5 7 9 11 9 6 7 10
12 13 13 13 12 11 10 9 9 9 9 9 9 9 8 7 6 5 4 4 4 5 5 6 7 7 9 10 11 11 12 13 15 16 16 16 16 17 20 22 23 23 24 24 25 26 27 25 24 25 28 30 32 32 32 30 28 25 22 20 17 14 11 8 5 2 3 4 5 5 5 3 4 4 3 3 2 4 7 10 10 10 7 4 6
10 10 11 12 12 12 11 11 11 10 10 10 10 9 8 6 5 4 3 3 3 4 5 6 7 8 9 10 11 12 13 14 15 16 16 16 15 16 19 22 22 22 23 23 24 26 26 25 23 24 27 31 32 33 33 32 31 29 26 22 19 15 12 9 7 5 3 4 5 6 8 7 6 6 2 6 5 3 5 9 11 11 10 7 5
8 8 9 10 11 11 12 12 12 11 11 10 9 8 7 5 4 2 1 2 2 3 4 5 6 7 8 9 10 11 13 13 15 16 16 16 15 16 18 21 22 21 22 22 23 24 25 25 23 24 26 30 32 33 34 34 33 32 29 24 20 16 14 11 9 7 4 3 5 6 7 7 6 5 1 7 9 6 5 7 9 11 11 9 7
Wind_Direction
221 221 224 230 232 227 227 232 234 237 242 249 252 253 257 261 264 266 268 270 271 271 272 276 283 292 300 307 313 317 321 325 328 332 337 341 343 339 331 322 315 309 306 304 301 299 295 290 284 280 277 275 275 275 274 274 275 274 274 274 275 275 275 274 273 272 271 270 268 267 267 267 267 267 265 265 264 264 263 263 264 265 266 266 266
221 222 224 229 229 224 222 225 229 234 237 242 248 250 254 257 260 263 266 268 271 272 272 273 275 280 285 291 298 303 308 311 313 316 320 323 327 327 326 323 320 315 307 301 296 293 291 287 282 277 274 271 271 272 273 273 274 273 272 273 275 276 277 278 277 276 275 275 275 274 272 269 269 269 268 268 268 267 266 264 263 263 264 264 265
226 226 226 229 232 228 225 224 225 230 233 237 242 246 251 255 257 260 263 266 267 269 270 272 274 275 277 281 285 290 295 299 302 305 308 312 314 315 315 315 317 317 312 304 297 292 289 287 284 281 278 275 274 274 275 276 277 277 276 276 278 279 280 281 282 282 282 282 281 280 278 275 273 272 272 272 272 272 271 270 268 266 266 266 265
233 233 230 232 235 234 233 229 225 227 232 237 241 243 245 249 253 256 260 263 265 265 266 268 270 272 275 277 280 282 284 287 291 295 299 303 305 306 306 307 308 309 310 308 303 297 291 286 283 281 279 278 277 277 278 279 280 281 281 282 282 283 284 284 284 285 285 286 285 284 282 280 278 276 275 275 274 274 274 273 273 271 270 270 269
229 232 233 235 236 237 239 235 230 233 239 244 249 249 246 244 246 249 253 258 261 262 264 266 267 269 271 274 275 277 279 281 284 286 291 295 297 299 300 301 301 301 302 303 303 301 297 291 285 280 278 277 276 276 277 277 278 279 280 280 281 282 283 284 284 285 286 288 288 286 284 283 281 279 279 277 276 275 275 274 274 274 273 273 273
229 231 235 238 238 239 239 236 239 248 252 251 253 255 253 249 247 247 248 251 255 258 261 264 267 267 270 272 272 273 275 278 280 282 284 287 290 292 294 296 296 297 297 297 298 298 298 296 291 287 282 279 277 276 276 276 276 277 277 277 278 279 280 281 281 282 284 286 287 286 286 284 282 281 280 279 278 277 276 275 274 275 275 275 275
239 236 237 241 242 243 243 243 247 253 255 253 253 254 256 255 253 252 251 250 253 257 258 260 264 265 267 270 271 271 272 274 277 278 280 282 285 287 289 290 291 293 293 294 294 295 296 296 294 292 289 286 282 280 278 277 276 276 276 276 276 276 277 277 277 278 278 280 282 283 284 284 283 282 281 279 278 276 276 276 275 275 275 276 275
248 244 246 251 252 253 253 251 251 252 253 255 256 255 256 255 255 256 256 255 257 259 257 256 259 263 265 268 270 271 272 273 275 276 277 279 281 283 284 286 287 289 290 290 290 290 292 294 294 293 292 290 287 284 282 279 278 277 277 277 276 276 275 275 275 274 274 275 276 278 280 281 283 284 283 282 279 277 275 275 274 274 274 275 275
260 260 262 263 261 260 259 255 254 257 260 262 262 259 258 256 255 256 257 257 258 259 257 257 260 263 265 267 268 270 272 274 274 274 274 275 277 279 281 282 284 285 286 286 286 286 288 290 291 292 292 290 289 288 286 283 280 279 278 278 278 278 277 276 275 274 273 272 273 274 275 276 278 280 282 283 283 282 280 278 276 275 274 274 274
265 264 264 262 259 260 259 257 257 260 263 264 263 261 259 258 256 256 256 256 256 256 257 258 259 260 262 264 267 269 271 274 275 273 272 272 272 274 277 278 280 282 283 283 284 285 286 287 288 289 289 288 288 288 288 286 284 281 279 279 279 278 278 278 277 276 275 274 274 275 275 276 277 277 278 279 281 282 283 283 282 281 280 277 275
272 270 269 266 264 265 265 263 261 261 262 263 261 258 258 258 258 258 257 257 256 256 256 257 258 259 261 262 265 268 271 274 274 272 270 270 269 270 272 275 277 280 281 282 283 283 284 285 287 288 287 287 286 286 285 284 283 282 280 279 279 278 278 278 278 277 277 277 277 277 278 279 280 280 279 277 277 278 280 282 284 284 284 282 280
274 273 271 269 268 267 267 267 266 265 264 263 261 258 257 257 258 259 259 259 258 258 258 259 260 261 262 261 262 266 268 269 270 271 272 270 268 266 268 271 273 277 280 282 282 283 283 285 287 288 287 286 287 287 286 284 282 280 280 279 278 278 278 278 278 278 278 278 278 279 280 282 283 283 282 281 278 277 277 279 281 282 283 284 284
271 269 268 268 267 266 267 267 266 266 265 264 263 261 259 258 258 259 259 260 260 260 260 261 261 263 264 263 264 265 265 265 267 270 272 271 268 265 265 268 271 273 276 279 281 283 285 287 289 289 288 286 286 287 287 285 282 280 279 278 277 277 277 277 277 278 279 280 280 281 282 283 284 284 284 284 283 280 279 278 278 279 280 282 283
267 265 264 265 266 266 266 266 266 265 265 264 263 262 261 260 259 260 260 260 261 262 262 263 263 264 265 266 266 265 265 265 266 268 269 269 268 266 265 268 271 272 274 278 282 284 286 288 288 287 287 287 286 286 286 285 282 281 280 279 278 277 276 276 275 276 277 278 280 281 282 282 283 283 284 284 284 284 284 282 281 279 279 280 282
267 266 266 266 266 266 266 266 266 266 266 265 264 262 261 260 260 260 260 260 261 262 263 264 265 266 266 266 266 265 264 264 264 265 266 267 269 269 268 270 272 273 276 280 284 285 286 286 286 284 284 286 286 286 286 284 283 281 280 279 278 278 277 277 277 277 277 277 277 278 278 279 279 280 280 281 282 283 283 283 283 282 280 281 282
268 270 270 270 270 270 270 270 269 269 269 269 267 265 264 262 261 260 259 259 260 261 262 263 263 265 265 265 266 265 264 263 263 264 265 268 270 271 271 272 273 275 279 282 284 285 286 286 285 283 283 284 285 286 285 284 282 282 281 279 278 277 277 277 278 278 278 278 278 277 278 278 278 278 278 278 279 279 280 280 281 281 281 281 281
270 272 273 273 272 272 272 272 272 272 271 271 270 268 267 265 263 261 260 260 260 260 261 261 261 261 262 263 263 262 261 261 263 265 268 269 271 272 273 273 275 277 280 282 285 287 287 286 284 283 283 283 284 285 286 285 283 282 280 280 278 278 278 278 279 278 277 276 276 277 278 279 279 279 279 279 279 278 278 278 278 278 279 280 280
275 277 276 276 276 275 274 273 273 272 272 271 270 269 267 265 263 262 261 261 261 260 259 259 259 259 258 259 259 257 255 257 260 264 268 270 271 273 274 275 277 279 282 285 286 286 285 284 283 283 283 283 283 285 286 286 285 284 282 281 279 278 278 279 279 279 277 276 276 277 277 278 278 279 279 279 279 278 278 279 278 276 277 278 278
282 283 282 282 280 279 277 275 274 273 271 270 269 267 266 264 263 262 261 262 262 261 260 259 258 258 257 257 256 254 252 254 258 262 267 271 273 275 275 276 278 282 284 284 283 283 284 284 285 284 282 281 282 284 284 284 284 284 284 282 281 281 281 280 278 278 278 278 279 279 279 279 278 278 277 276 275 275 275 276 275 275 275 276 275
285 285 286 286 284 282 280 277 275 273 272 270 269 267 265 263 261 261 260 261 262 262 261 259 257 255 254 256 258 257 252 250 254 261 268 273 277 278 279 278 279 281 282 282 282 283 284 285 285 284 283 283 284 284 283 283 283 283 282 282 281 281 281 279 278 278 279 279 280 280 281 280 279 278 277 276 275 274 273 272 271 271 272 272 272
285 286 287 287 285 282 280 277 275 274 272 272 270 268 266 262 260 259 259 260 261 261 260 257 254 252 253 256 259 257 250 247 252 262 271 277 280 281 280 278 278 279 280 281 283 284 284 284 285 285 285 285 286 285 284 284 283 283 282 282 281 280 279 278 278 278 279 280 281 281 281 280 280 279 278 277 276 275 274 273 272 271 270 269 268
283 284 285 284 282 280 278 276 274 272 271 271 270 268 265 262 259 258 257 257 258 258 256 252 250 250 250 251 251 251 250 251 256 264 271 275 277 278 277 276 276 278 280 281 282 283 284 285 285 285 286 286 286 286 285 285 284 283 282 281 280 279 279 279 279 279 280 281 281 281 280 281 280 280 279 278 276 275 274 273 273 272 271 269 267
281 281 280 279 278 277 276 274 270 267 267 268 266 265 263 259 258 256 254 252 253 254 251 248 247 248 248 246 247 250 252 256 260 264 268 271 274 275 276 276 277 279 281 282 284 285 286 286 286 285 285 285 285 285 285 284 283 283 282 281 280 280 280 280 281 282 282 282 282 282 282 282 281 281 279 278 277 275 274 273 272 271 271 270 268
277 276 275 275 275 275 274 271 265 261 264 265 263 261 258 255 254 253 249 247 248 248 246 245 246 246 246 245 246 249 251 253 258 262 265 268 272 274 276 277 279 281 283 285 286 287 288 288 288 288 287 287 287 287 286 286 285 284 284 284 284 284 284 284 285 284 284 284 284 284 283 282 281 281 280 279 277 276 275 274 273 272 271 270 268
274 274 274 275 275 274 272 267 260 259 262 263 262 259 254 251 251 250 246 243 242 242 244 245 245 245 245 244 244 245 248 252 255 259 263 266 269 272 275 278 281 284 285 286 287 288 289 290 291 291 291 291 291 290 290 289 288 287 287 287 286 285 285 285 285 285 285 284 284 283 283 282 282 282 281 279 278 276 274 273 272 271 270 269 268
276 276 276 275 274 272 270 265 259 259 260 259 258 254 250 247 247 245 242 240 240 241 242 243 241 240 240 240 241 243 246 250 253 255 260 266 271 275 279 282 284 286 288 289 291 291 291 292 292 292 291 291 290 290 289 289 289 289 288 287 286 286 285 284 284 283 283 283 283 283 284 285 286 284 282 279 276 274 273 271 270 269 269 269 269
276 275 274 272 272 272 270 264 259 257 255 252 250 248 246 245 244 242 240 238 236 237 237 235 233 232 233 235 239 241 242 246 252 258 265 273 278 282 285 287 289 291 292 293 293 293 292 292 292 291 291 290 289 289 289 289 288 288 286 285 284 284 283 283 283 283 283 283 283 285 288 289 287 283 278 274 273 272 272 271 271 270 271 271 270
273 272 271 272 273 273 270 264 257 251 245 241 242 243 243 241 238 237 237 235 232 230 229 228 227 228 230 231 234 236 240 248 259 268 275 280 283 286 289 291 292 293 293 293 293 293 293 292 292 292 291 291 290 290 289 288 287 286 285 284 283 282 281 281 281 282 282 282 284 287 290 288 283 279 274 270 271 272 272 271 271 270 269 269 269
273 272 270 269 268 267 264 257 247 238 234 234 234 234 235 236 237 235 232 229 223 218 219 222 223 224 225 226 228 235 246 257 267 273 277 281 284 287 290 292 293 295 295 295 295 294 294 294 295 295 294 293 293 291 289 287 286 285 284 284 283 283 282 281 281 280 279 280 284 287 287 284 281 279 274 271 272 274 273 271 270 269 267 266 268
273 270 267 263 262 261 256 245 234 229 228 229 228 226 224 225 228 227 223 218 212 210 212 217 218 217 219 223 231 242 254 261 267 272 277 281 285 289 293 296 297 298 298 299 300 300 301 302 302 301 299 297 294 292 290 288 287 286 285 284 283 282 281 280 278 276 276 279 282 283 282 281 279 277 274 274 274 273 271 269 268 267 266 266 268
270 267 263 259 259 257 247 232 224 222 222 224 225 225 223 221 218 214 210 206 204 203 204 205 206 208 215 225 236 245 253 260 267 274 280 286 291 296 300 303 304 306 308 310 312 312 312 311 310 308 305 301 298 295 292 290 288 287 286 284 282 280 277 274 272 271 274 277 279 279 277 276 276 276 275 274 271 267 264 264 264 265 266 267 269
265 260 255 248 246 245 236 223 219 218 218 222 224 220 217 217 214 208 201 196 195 193 193 194 196 202 212 221 230 241 253 263 272 281 288 295 301 306 310 314 318 320 321 320 321 321 320 319 317 314 310 306 302 298 295 293 291 289 286 283 279 275 272 269 267 268 271 274 276 275 274 274 275 275 272 267 264 261 262 264 266 267 267 267 269
247 241 238 232 228 227 220 211 210 212 211 213 214 208 201 201 202 198 193 189 188 189 191 193 195 198 204 214 229 245 260 272 281 290 297 304 309 314 321 326 327 326 324 325 326 327 326 325 323 320 316 312 307 304 301 298 295 292 289 284 279 273 269 265 264 265 268 271 273 274 272 273 274 270 263 259 259 260 262 266 269 269 270 270 269
226 225 228 224 214 206 201 200 205 209 205 201 198 192 182 180 183 186 186 187 188 189 188 186 186 191 202 219 240 257 270 280 289 298 305 311 317 324 331 332 329 328 329 332 333 333 332 331 329 326 321 317 313 309 306 304 300 295 289 284 279 273 268 264 262 264 265 268 272 273 273 273 271 263 255 253 255 257 261 265 268 269 270 271 269
222 221 218 207 194 191 193 196 200 200 193 182 174 168 165 167 171 174 176 177 175 172 172 176 185 197 211 229 249 266 277 285 297 309 317 322 329 332 333 332 332 334 337 337 337 337 337 335 333 330 326 322 318 314 312 309 304 298 291 285 281 275 269 264 263 263 265 267 270 272 272 272 268 259 253 254 256 257 259 261 264 267 268 267 265
206 199 191 185 184 187 186 183 180 179 172 163 160 162 164 165 165 162 158 156 158 164 173 183 195 208 221 237 257 272 286 302 321 331 334 334 333 331 332 335 338 341 342 342 341 340 339 337 336 333 330 326 323 321 320 316 311 304 298 293 289 284 276 269 264 262 263 266 270 273 272 270 266 259 256 257 259 258 259 262 264 265 264 262 262
168 170 171 174 176 174 168 162 160 161 160 157 158 159 158 153 148 146 149 156 165 176 186 194 204 217 233 254 276 298 318 332 339 340 338 335 332 333 338 343 345 345 345 345 343 341 340 339 338 337 334 332 330 330 328 324 317 311 304 299 297 294 288 279 271 267 266 268 271 272 271 268 263 258 256 259 262 264 265 266 267 264 261 260 260
144 146 147 149 149 149 147 147 149 151 151 149 147 145 143 142 145 151 160 168 175 185 194 199 210 232 260 293 321 336 340 340 341 342 341 339 339 342 345 347 347 347 348 347 344 342 341 340 340 340 338 337 336 336 334 329 322 315 310 305 302 300 294 286 278 273 272 271 270 269 267 266 263 260 261 266 271 272 270 267 265 262 260 259 259
129 129 131 134 137 139 141 142 143 142 139 136 135 136 140 146 152 158 163 169 177 187 193 201 233 293 325 340 348 350 347 344 344 345 345 344 345 346 347 348 349 349 349 347 345 343 342 342 343 343 341 340 340 340 338 334 329 323 318 314 309 306 300 290 279 273 271 269 269 272 279 283 283 281 280 278 276 274 270 265 262 261 261 259 257
121 124 127 131 133 135 136 137 136 133 131 131 133 138 143 147 149 149 153 163 174 181 178 185 318 339 345 348 353 355 352 348 345 344 344 346 347 347 348 349 350 350 349 348 347 345 345 346 347 346 345 343 342 341 340 340 338 334 328 324 320 316 308 292 276 268 269 274 286 297 302 301 298 293 287 277 269 266 265 263 261 261 258 254 251
117 121 125 129 130 131 131 130 127 126 128 131 136 139 140 139 136 135 139 154 166 167 166 300 341 347 345 346 355 359 355 349 345 344 346 349 351 350 349 350 351 352 351 349 349 348 349 350 351 350 348 345 343 343 345 346 345 341 338 334 329 325 316 296 275 270 289 309 316 315 311 306 301 295 285 273 267 265 265 264 260 253 246 245 246
113 117 122 125 125 125 125 123 124 127 132 136 139 138 135 132 132 134 143 155 152 104 6 347 343 346 348 354 3 3 356 350 348 348 350 352 352 351 350 351 353 354 352 350 351 352 353 354 355 353 349 346 346 349 351 351 349 348 345 341 337 335 328 311 290 319 349 340 331 325 319 312 304 295 284 277 274 272 268 261 248 234 231 233 231
111 116 120 120 119 120 121 122 125 130 135 138 139 140 140 140 141 145 140 96 55 29 350 328 328 354 7 10 8 4 355 351 352 354 353 352 352 352 352 354 356 356 354 353 354 356 356 357 358 356 351 349 352 355 356 354 352 350 347 345 346 349 348 344 0 41 23 357 343 337 332 322 303 291 287 280 275 276 271 255 233 222 216 203 182
115 118 118 118 119 121 123 124 128 133 137 141 146 150 153 151 139 118 92 74 60 27 311 321 355 13 19 17 11 3 356 354 357 358 355 352 353 354 355 358 359 358 356 356 358 358 359 1 2 360 356 356 358 360 359 357 353 349 346 347 354 1 1 2 28 70 56 21 358 349 347 344 321 299 312 300 270 264 258 222 200 185 171 159 151
118 121 122 123 126 128 129 130 135 140 145 149 153 153 146 131 110 97 91 90 99 113 337 4 16 20 20 18 11 3 357 356 359 358 355 353 355 357 359 1 2 1 358 359 360 0 1 3 4 3 1 3 5 5 3 1 357 352 348 348 354 4 10 14 39 106 105 69 32 6 5 25 53 59 29 30 107 142 151 157 158 155 151 146 146
124 128 132 135 136 137 138 140 144 147 149 151 148 139 126 113 104 102 103 105 100 53 25 23 22 19 16 13 9 3 359 357 357 357 355 355 357 0 3 5 5 3 1 1 2 2 3 5 6 5 7 9 10 9 8 7 4 0 355 351 352 2 14 21 42 147 164 151 116 25 3 30 69 76 62 63 99 122 137 149 154 151 146 145 152
135 140 143 146 148 148 148 149 148 149 148 145 139 132 124 118 113 112 111 103 80 52 39 29 20 14 10 8 6 3 0 356 354 355 355 356 358 3 7 8 6 5 4 3 3 4 6 8 8 9 12 15 15 14 14 13 11 8 3 357 356 6 19 25 43 171 197 204 209 328 335 321 258 35 28 53 92 117 138 156 163 156 134 127 154
145 150 155 160 160 157 156 154 151 148 147 144 141 137 132 128 125 121 111 94 74 57 42 29 19 12 7 6 4 1 358 354 353 354 355 356 -0 6 10 10 9 7 6 5 5 6 8 10 11 14 18 20 20 19 19 19 17 14 10 6 7 15 22 23 25 219 221 226 244 306 335 340 310 301 315 13 101 130 153 169 176 172 144 118 142
155 162 167 169 165 162 162 161 158 156 155 152 149 146 142 140 137 128 111 88 69 53 40 29 19 11 6 3 2 358 355 352 352 353 354 356 1 8 12 12 10 9 8 7 7 9 11 12 14 18 23 26 24 22 22 23 23 22 19 16 14 14 16 17 17 354 270 246 249 273 295 331 7 352 301 238 178 154 164 173 181 188 188 164 139
162 171 176 175 171 169 168 167 165 164 162 160 157 157 157 154 148 132 106 78 56 41 31 22 15 10 6 2 359 355 352 350 350 351 352 355 1 9 14 13 12 11 10 9 10 12 13 14 16 22 28 30 29 26 24 25 26 27 26 23 18 15 13 14 18 12 327 264 252 263 271 285 323 341 283 212 204 181 166 172 181 190 198 204 188
176 181 184 184 181 177 173 170 169 169 168 167 167 167 166 161 151 131 88 44 24 13 7 5 5 4 3 0 357 353 349 347 347 349 350 353 0 10 14 14 12 12 12 12 12 14 14 14 18 25 32 34 33 29 26 26 28 29 29 28 25 24 22 19 18 16 359 275 251 261 273 284 312 338 256 193 196 196 181 176 183 188 191 195 200
Height
3103 3105 3106 3106 3108 3109 3111 3112 3113 3114 3115 3115 3115 3116 3116 3116 3116 3116 3115 3115 3116 3116 3116 3117 3117 3117 3117 3117 3117 3118 3118 3118 3118 3118 3118 3118 3117 3117 3116 3116 3116 3115 3115 3115 3114 3114 3113 3113 3113 3113 3113 3113 3113 3113 3113 3113 3113 3114 3114 3114 3114 3114 3115 3115 3114 3114 3114 3114 3114 3114 3114 3114 3113 3113 3112 3112 3112 3112 3112 3112 3111 3111 3111 3111 3111
3101 3102 3103 3104 3104 3106 3107 3108 3110 3111 3112 3112 3113 3113 3114 3114 3114 3113 3113 3113 3114 3114 3115 3115 3115 3115 3115 3115 3116 3116 3116 3116 3116 3116 3116 3116 3116 3116 3115 3115 3115 3114 3114 3113 3113 3112 3112 3111 3111 3111 3112 3112 3111 3111 3111 3111 3111 3111 3112 3112 3112 3112 3112 3112 3112 3111 3111 3111 3111 3110 3111 3111 3111 3110 3109 3109 3109 3109 3109 3108 3108 3107 3107 3107 3107
3099 3100 3100 3101 3103 3103 3104 3105 3106 3107 3108 3109 3110 3110 3111 3111 3112 3111 3111 3111 3111 3111 3112 3113 3113 3113 3113 3113 3114 3114 3114 3114 3114 3114 3114 3114 3114 3114 3114 3113 3113 3113 3112 3112 3111 3111 3110 3110 3109 3109 3109 3109 3109 3109 3109 3109 3109 3108 3108 3108 3109 3109 3109 3110 3109 3108 3108 3108 3108 3107 3107 3107 3107 3107 3106 3106 3106 3105 3105 3105 3104 3104 3103 3103 3103
3097 3098 3098 3099 3100 3101 3102 3102 3102 3103 3105 3106 3107 3107 3108 3108 3109 3109 3109 3108 3108 3108 3109 3109 3110 3110 3110 3111 3111 3111 3112 3112 3112 3112 3112 3112 3112 3112 3112 3111 3111 3111 3110 3110 3110 3109 3109 3108 3107 3107 3107 3106 3106 3106 3105 3105 3105 3105 3105 3104 3104 3105 3105 3106 3106 3105 3104 3104 3105 3105 3104 3104 3103 3103 3102 3102 3102 3101 3101 3101 3100 3100 3100 3099 3099
3094 3094 3095 3096 3097 3098 3099 3100 3099 3099 3101 3102 3103 3104 3104 3105 3105 3106 3106 3105 3105 3105 3105 3106 3106 3106 3107 3107 3107 3108 3108 3109 3109 3109 3109 3109 3109 3109 3109 3108 3108 3108 3108 3108 3107 3107 3106 3106 3105 3105 3104 3104 3104 3103 3103 3102 3102 3101 3101 3101 3100 3100 3101 3101 3101 3101 3100 3100 3100 3100 3100 3100 3100 3100 3099 3098 3098 3098 3097 3097 3096 3096 3096 3096 3095
3090 3091 3092 3094 3094 3094 3096 3096 3097 3097 3098 3098 3100 3101 3101 3101 3102 3102 3102 3102 3102 3102 3102 3102 3102 3103 3103 3104 3104 3104 3105 3105 3105 3106 3106 3106 3106 3106 3106 3105 3105 3104 3104 3104 3104 3104 3103 3103 3103 3102 3102 3101 3101 3100 3100 3100 3099 3098 3098 3097 3097 3096 3097 3097 3097 3097 3097 3096 3095 3095 3095 3095 3096 3096 3096 3095 3094 3094 3093 3093 3092 3092 3092 3092 3091
3088 3089 3090 3091 3091 3091 3092 3093 3093 3095 3095 3095 3096 3097 3098 3098 3099 3098 3099 3098 3098 3098 3099 3099 3099 3100 3100 3100 3100 3100 3101 3101 3101 3102 3102 3103 3103 3102 3102 3102 3101 3101 3100 3100 3100 3100 3100 3099 3099 3099 3098 3098 3097 3097 3096 3096 3096 3095 3095 3094 3093 3093 3093 3093 3093 3094 3094 3093 3092 3090 3090 3090 3090 3091 3091 3090 3090 3090 3089 3089 3088 3088 3088 3088 3087
3087 3087 3088 3088 3088 3089 3090 3090 3091 3092 3092 3092 3093 3094 3094 3095 3095 3095 3095 3095 3095 3095 3096 3096 3095 3096 3096 3096 3096 3097 3097 3097 3097 3098 3098 3099 3099 3099 3099 3098 3098 3097 3097 3096 3096 3096 3095 3095 3095 3094 3094 3094 3093 3093 3092 3092 3091 3091 3090 3089 3089 3089 3089 3089 3089 3089 3089 3089 3089 3088 3086 3086 3085 3085 3085 3085 3084 3085 3085 3084 3084 3084 3084 3084 3084
3084 3085 3085 3086 3086 3087 3087 3088 3088 3089 3089 3089 3090 3090 3090 3090 3090 3091 3091 3091 3092 3092 3092 3092 3091 3091 3092 3092 3092 3092 3093 3093 3093 3094 3095 3095 3095 3095 3095 3094 3094 3093 3093 3093 3092 3092 3092 3091 3091 3091 3090 3089 3089 3089 3088 3087 3087 3086 3085 3085 3084 3084 3084 3084 3084 3084 3084 3084 3084 3084 3083 3082 3082 3082 3081 3079 3078 3078 3079 3079 3079 3079 3080 3079 3079
3080 3080 3081 3082 3083 3083 3084 3084 3084 3085 3085 3086 3086 3086 3086 3086 3086 3086 3086 3087 3087 3088 3088 3088 3087 3087 3087 3088 3087 3087 3088 3089 3089 3090 3091 3091 3091 3090 3090 3090 3090 3089 3089 3089 3089 3089 3088 3088 3087 3087 3086 3085 3085 3084 3084 3083 3082 3081 3081 3080 3079 3078 3078 3078 3078 3078 3078 3078 3078 3078 3077 3076 3077 3078 3077 3076 3073 3072 3072 3072 3072 3073 3073 3074 3074
3075 3075 3076 3076 3077 3078 3079 3079 3080 3080 3080 3081 3081 3081 3081 3081 3081 3081 3081 3082 3082 3083 3084 3083 3082 3082 3083 3083 3083 3084 3084 3085 3086 3086 3086 3086 3086 3086 3085 3085 3085 3085 3085 3085 3085 3085 3085 3084 3084 3083 3083 3082 3081 3080 3079 3078 3078 3077 3076 3075 3074 3073 3073 3073 3072 3072 3072 3072 3072 3072 3071 3070 3070 3071 3071 3071 3070 3068 3066 3066 3066 3066 3066 3066 3067
3070 3070 3071 3071 3072 3073 3073 3074 3074 3075 3075 3075 3076 3076 3076 3076 3076 3076 3076 3076 3077 3078 3078 3078 3077 3078 3078 3078 3079 3080 3081 3082 3081 3081 3081 3081 3081 3081 3081 3080 3081 3080 3080 3081 3081 3080 3080 3080 3079 3079 3078 3077 3076 3075 3074 3073 3073 3072 3072 3071 3069 3068 3068 3067 3066 3066 3066 3065 3065 3065 3065 3065 3064 3064 3063 3064 3064 3063 3062 3060 3060 3060 3059 3059 3060
3066 3066 3067 3067 3067 3068 3068 3068 3069 3069 3070 3070 3070 3071 3071 3071 3071 3071 3071 3072 3072 3073 3073 3073 3073 3074 3074 3074 3075 3076 3076 3077 3077 3076 3076 3076 3076 3077 3076 3076 3076 3076 3076 3076 3076 3076 3075 3075 3074 3073 3072 3072 3071 3070 3069 3068 3067 3066 3066 3066 3065 3064 3063 3062 3061 3060 3060 3059 3058 3059 3059 3059 3058 3057 3056 3056 3056 3056 3056 3055 3055 3054 3053 3053 3052
3062 3063 3063 3063 3063 3064 3064 3064 3064 3064 3065 3065 3065 3066 3066 3066 3066 3066 3066 3067 3067 3068 3068 3069 3069 3069 3070 3070 3070 3071 3072 3072 3071 3071 3071 3071 3072 3072 3071 3071 3072 3071 3071 3071 3071 3071 3070 3070 3069 3068 3067 3066 3066 3065 3064 3062 3061 3060 3060 3059 3059 3058 3057 3056 3055 3055 3054 3053 3053 3052 3053 3052 3051 3051 3050 3049 3048 3048 3048 3048 3048 3048 3047 3046 3046
3058 3059 3059 3060 3060 3060 3060 3060 3060 3060 3060 3061 3061 3061 3061 3061 3061 3062 3062 3062 3062 3063 3063 3064 3064 3065 3065 3065 3065 3066 3066 3066 3066 3067 3067 3067 3067 3067 3067 3067 3067 3067 3067 3067 3066 3066 3065 3065 3064 3062 3061 3061 3060 3060 3059 3057 3055 3054 3053 3053 3052 3051 3050 3050 3049 3049 3048 3048 3047 3046 3046 3046 3046 3045 3045 3044 3042 3041 3041 3041 3041 3041 3040 3040 3040
3055 3055 3055 3055 3056 3056 3055 3055 3055 3056 3056 3056 3056 3057 3056 3057 3057 3057 3057 3058 3058 3058 3058 3059 3060 3060 3060 3061 3061 3061 3061 3061 3061 3062 3062 3062 3062 3062 3062 3062 3062 3062 3062 3062 3061 3060 3060 3059 3058 3056 3055 3055 3054 3054 3053 3051 3050 3048 3047 3046 3046 3045 3044 3043 3043 3043 3042 3041 3040 3039 3039 3039 3039 3039 3039 3038 3037 3036 3035 3035 3034 3033 3033 3033 3034
3051 3051 3051 3051 3051 3051 3051 3051 3051 3051 3051 3051 3051 3052 3052 3052 3052 3052 3052 3053 3053 3053 3054 3054 3055 3055 3056 3056 3056 3056 3056 3056 3056 3057 3057 3057 3057 3058 3057 3057 3057 3057 3057 3056 3055 3054 3053 3053 3052 3051 3049 3049 3048 3047 3046 3045 3043 3042 3041 3040 3039 3038 3037 3037 3037 3036 3035 3034 3033 3032 3032 3032 3031 3031 3031 3031 3030 3029 3028 3028 3028 3027 3026 3026 3025
3046 3047 3047 3046 3046 3046 3046 3046 3046 3046 3046 3046 3046 3046 3046 3046 3046 3046 3047 3047 3047 3048 3049 3049 3049 3050 3051 3051 3051 3050 3050 3051 3052 3052 3052 3053 3053 3053 3053 3053 3052 3052 3052 3051 3050 3048 3047 3046 3045 3045 3044 3043 3042 3041 3040 3038 3035 3034 3034 3033 3032 3031 3031 3031 3030 3028 3027 3026 3026 3026 3026 3026 3025 3025 3024 3023 3023 3022 3020 3020 3020 3019 3018 3018 3017
3042 3042 3042 3042 3042 3042 3041 3041 3041 3041 3041 3041 3041 3041 3041 3040 3040 3041 3041 3041 3042 3043 3043 3043 3044 3045 3045 3045 3045 3044 3045 3046 3047 3047 3048 3048 3048 3049 3049 3049 3048 3048 3047 3045 3043 3042 3041 3040 3039 3038 3038 3037 3037 3036 3034 3031 3029 3027 3026 3025 3024 3024 3024 3023 3022 3020 3019 3018 3018 3018 3018 3018 3018 3018 3017 3016 3016 3015 3013 3012 3011 3010 3010 3010 3009
3036 3036 3036 3036 3036 3036 3036 3036 3036 3035 3035 3035 3035 3035 3035 3035 3035 3036 3036 3036 3037 3037 3038 3038 3039 3040 3040 3039 3039 3039 3040 3041 3042 3043 3044 3044 3044 3044 3044 3044 3043 3042 3041 3039 3038 3037 3036 3035 3034 3032 3031 3031 3030 3029 3027 3025 3024 3022 3020 3018 3017 3017 3016 3015 3013 3012 3011 3010 3010 3010 3010 3009 3009 3009 3008 3008 3007 3007 3006 3005 3003 3002 3002 3002 3001
3030 3030 3030 3030 3030 3030 3030 3030 3030 3030 3030 3029 3029 3029 3030 3030 3030 3030 3031 3031 3032 3033 3033 3033 3034 3034 3034 3034 3034 3035 3035 3037 3038 3039 3040 3040 3040 3040 3040 3039 3038 3036 3035 3034 3033 3032 3031 3030 3029 3026 3024 3024 3023 3021 3020 3018 3017 3015 3013 3012 3011 3009 3008 3006 3005 3004 3003 3003 3002 3002 3001 3000 3000 3000 2999 2999 2998 2997 2996 2995 2994 2993 2993 2993 2993
3024 3024 3024 3024 3024 3024 3024 3024 3024 3024 3024 3024 3024 3024 3024 3024 3025 3025 3026 3026 3027 3028 3028 3028 3028 3029 3029 3030 3030 3031 3032 3033 3034 3035 3036 3036 3036 3035 3034 3033 3032 3032 3030 3029 3029 3028 3026 3025 3023 3020 3019 3017 3015 3014 3012 3011 3009 3008 3006 3005 3003 3002 3000 2998 2997 2996 2995 2995 2994 2993 2992 2992 2991 2991 2990 2989 2989 2988 2987 2986 2984 2983 2983 2984 2984
3018 3018 3017 3017 3018 3018 3018 3018 3018 3018 3018 3018 3018 3018 3018 3019 3019 3020 3021 3022 3023 3023 3023 3023 3024 3024 3025 3026 3027 3028 3029 3030 3031 3031 3032 3031 3031 3030 3029 3029 3028 3027 3026 3025 3023 3022 3020 3018 3017 3015 3013 3011 3009 3008 3006 3004 3002 3000 2999 2997 2996 2994 2992 2990 2989 2988 2987 2986 2985 2984 2984 2983 2982 2982 2981 2980 2979 2978 2977 2976 2975 2974 2973 2973 2973
3011 3011 3010 3010 3011 3012 3012 3011 3012 3012 3012 3012 3012 3012 3013 3014 3015 3016 3016 3017 3018 3018 3018 3019 3019 3020 3021 3022 3023 3024 3025 3026 3027 3027 3027 3027 3027 3026 3026 3025 3024 3023 3021 3019 3018 3016 3014 3012 3010 3008 3006 3004 3002 3000 2998 2996 2995 2993 2991 2990 2988 2986 2984 2982 2981 2980 2978 2977 2977 2976 2975 2975 2974 2973 2972 2971 2970 2968 2967 2966 2965 2964 2964 2964 2964
3004 3003 3004 3004 3005 3005 3005 3005 3006 3006 3006 3006 3007 3007 3008 3009 3010 3011 3012 3013 3013 3013 3014 3015 3016 3017 3018 3019 3020 3021 3022 3022 3023 3024 3024 3023 3023 3023 3022 3021 3020 3018 3017 3015 3013 3011 3008 3006 3004 3002 2999 2997 2995 2993 2991 2989 2987 2985 2984 2982 2980 2978 2977 2975 2973 2972 2970 2969 2969 2968 2967 2967 2966 2965 2963 2962 2960 2959 2958 2958 2957 2956 2955 2955 2955
2997 2997 2997 2998 2998 2998 2998 2999 3000 3000 3000 3000 3002 3002 3004 3005 3006 3007 3008 3008 3008 3009 3010 3011 3012 3014 3015 3015 3016 3018 3019 3020 3020 3021 3021 3020 3020 3019 3019 3017 3016 3014 3012 3010 3008 3006 3003 3001 2999 2996 2994 2991 2989 2986 2984 2982 2980 2978 2976 2974 2972 2970 2968 2967 2965 2964 2963 2962 2961 2960 2959 2958 2957 2956 2954 2953 2952 2951 2951 2950 2950 2949 2948 2948 2947
2990 2991 2991 2992 2992 2992 2992 2993 2993 2994 2994 2996 2997 2998 2999 3001 3002 3003 3004 3004 3005 3006 3008 3008 3009 3010 3011 3013 3014 3015 3016 3017 3017 3017 3017 3017 3016 3015 3014 3013 3011 3010 3008 3006 3003 3001 2999 2996 2994 2991 2988 2985 2982 2980 2977 2975 2973 2971 2969 2967 2965 2963 2961 2959 2957 2956 2955 2955 2954 2953 2952 2951 2949 2948 2947 2946 2945 2945 2945 2944 2943 2943 2944 2943 2941
2984 2985 2985 2986 2986 2986 2986 2986 2987 2988 2990 2991 2992 2994 2995 2997 2998 2999 3000 3000 3001 3003 3004 3005 3006 3007 3009 3010 3012 3013 3014 3014 3014 3014 3014 3013 3013 3012 3011 3009 3008 3006 3004 3002 2999 2997 2994 2991 2988 2985 2982 2979 2976 2973 2971 2968 2966 2964 2962 2960 2958 2956 2954 2951 2950 2949 2948 2948 2947 2947 2946 2945 2943 2942 2941 2940 2940 2941 2940 2939 2938 2938 2939 2937 2936
2978 2979 2980 2981 2981 2981 2981 2981 2982 2984 2985 2987 2988 2990 2992 2993 2994 2995 2996 2997 2998 3000 3001 3002 3004 3005 3007 3008 3010 3010 3011 3011 3011 3011 3011 3010 3010 3009 3008 3006 3004 3002 3000 2998 2995 2992 2989 2986 2983 2979 2976 2973 2970 2967 2964 2962 2959 2957 2955 2952 2950 2948 2946 2944 2943 2942 2942 2941 2941 2940 2940 2939 2938 2937 2936 2936 2936 2936 2935 2934 2934 2934 2933 2932 2931
2972 2973 2974 2975 2975 2976 2977 2977 2978 2979 2981 2983 2984 2986 2988 2990 2991 2992 2993 2995 2996 2998 3000 3002 3003 3004 3005 3006 3007 3008 3008 3008 3009 3009 3008 3008 3007 3006 3004 3003 3001 2999 2996 2994 2990 2987 2984 2981 2977 2974 2970 2967 2964 2961 2958 2955 2952 2950 2948 2945 2943 2941 2939 2938 2937 2936 2936 2935 2935 2935 2934 2934 2933 2933 2932 2931 2932 2931 2930 2929 2929 2929 2929 2928 2928
2966 2967 2968 2969 2970 2972 2973 2974 2975 2976 2978 2980 2981 2983 2985 2987 2988 2990 2991 2993 2995 2997 2998 3000 3001 3002 3004 3005 3005 3006 3006 3007 3007 3006 3006 3005 3004 3002 3001 2999 2997 2994 2991 2988 2985 2982 2978 2975 2971 2968 2964 2960 2957 2954 2951 2948 2945 2943 2941 2939 2937 2935 2933 2932 2931 2931 2930 2930 2930 2930 2929 2929 2928 2928 2927 2927 2927 2926 2926 2925 2925 2925 2925 2925 2925
2960 2962 2963 2965 2967 2968 2969 2970 2972 2974 2976 2977 2978 2979 2981 2983 2985 2988 2990 2992 2994 2996 2997 2999 3000 3001 3003 3004 3004 3005 3005 3004 3004 3003 3003 3001 3000 2998 2997 2995 2992 2989 2986 2983 2980 2976 2973 2969 2965 2961 2958 2954 2951 2947 2945 2942 2939 2937 2934 2932 2931 2929 2928 2927 2926 2926 2925 2925 2925 2925 2924 2924 2924 2924 2923 2923 2922 2922 2922 2922 2921 2921 2921 2921 2921
2956 2957 2959 2961 2963 2964 2966 2968 2971 2972 2974 2975 2977 2978 2980 2982 2985 2987 2989 2991 2994 2996 2997 2998 3000 3001 3002 3002 3003 3003 3002 3002 3002 3001 3000 2998 2997 2995 2993 2991 2989 2986 2983 2980 2976 2972 2968 2964 2960 2956 2952 2949 2945 2942 2939 2936 2934 2931 2929 2927 2925 2924 2923 2922 2922 2921 2921 2921 2920 2920 2920 2919 2919 2919 2919 2918 2918 2918 2918 2918 2917 2917 2917 2916 2916
2951 2953 2955 2957 2959 2962 2964 2967 2969 2971 2972 2974 2976 2979 2982 2984 2987 2989 2990 2992 2994 2995 2996 2997 2999 3000 3000 3001 3001 3001 3000 3000 2999 2998 2997 2996 2995 2992 2990 2988 2985 2983 2979 2975 2972 2968 2964 2960 2956 2951 2948 2944 2941 2937 2934 2932 2929 2926 2924 2922 2921 2919 2919 2918 2917 2917 2917 2916 2916 2916 2915 2915 2914 2914 2914 2914 2914 2914 2914 2914 2914 2913 2912 2912 2912
2947 2949 2952 2954 2957 2960 2963 2965 2968 2970 2973 2974 2977 2979 2982 2984 2986 2988 2990 2991 2993 2994 2995 2997 2998 2998 2999 2999 2999 2999 2999 2998 2998 2996 2995 2993 2991 2990 2988 2985 2983 2979 2976 2972 2968 2964 2959 2955 2951 2947 2944 2940 2937 2933 2930 2927 2924 2922 2920 2918 2916 2915 2914 2913 2913 2913 2913 2912 2912 2911 2911 2910 2909 2910 2910 2910 2910 2910 2910 2910 2909 2909 2908 2907 2907
2944 2947 2950 2953 2956 2959 2962 2965 2968 2971 2974 2976 2978 2980 2983 2984 2986 2987 2989 2991 2992 2994 2995 2996 2997 2997 2997 2998 2998 2997 2997 2996 2995 2993 2992 2990 2989 2987 2985 2983 2980 2976 2972 2968 2964 2960 2956 2952 2948 2944 2940 2937 2933 2930 2927 2923 2921 2918 2916 2914 2912 2911 2910 2909 2909 2909 2908 2908 2907 2907 2906 2905 2905 2905 2905 2905 2906 2906 2906 2905 2904 2904 2903 2903 2902
2943 2946 2949 2953 2956 2960 2963 2966 2969 2972 2975 2978 2979 2981 2983 2985 2986 2988 2990 2992 2993 2994 2995 2995 2996 2996 2996 2996 2996 2995 2994 2993 2992 2991 2989 2988 2986 2985 2982 2979 2976 2972 2969 2965 2961 2957 2953 2949 2945 2941 2937 2933 2930 2926 2923 2920 2917 2915 2913 2911 2909 2908 2906 2905 2905 2904 2904 2904 2903 2903 2902 2901 2901 2901 2901 2901 2901 2901 2901 2900 2899 2898 2898 2898 2897
2945 2948 2952 2955 2958 2962 2965 2968 2971 2974 2976 2978 2980 2982 2984 2986 2988 2990 2991 2992 2993 2994 2994 2994 2994 2994 2994 2994 2993 2992 2991 2990 2990 2989 2987 2986 2984 2981 2979 2976 2973 2970 2966 2963 2959 2954 2950 2946 2942 2938 2934 2931 2927 2924 2921 2918 2915 2912 2910 2908 2906 2905 2903 2902 2902 2901 2901 2900 2900 2899 2899 2898 2898 2898 2898 2898 2897 2897 2896 2895 2894 2893 2893 2893 2893
2949 2953 2956 2959 2962 2965 2967 2970 2972 2975 2977 2979 2981 2983 2985 2987 2989 2990 2991 2992 2993 2993 2993 2993 2993 2993 2992 2992 2991 2990 2989 2988 2987 2986 2985 2984 2982 2979 2977 2974 2971 2968 2964 2961 2957 2953 2949 2944 2940 2936 2932 2928 2925 2922 2918 2915 2913 2910 2907 2905 2904 2902 2901 2900 2899 2898 2898 2897 2897 2897 2896 2896 2896 2895 2895 2894 2893 2892 2892 2891 2890 2889 2889 2889 2889
2954 2957 2960 2963 2965 2967 2970 2972 2974 2976 2978 2980 2982 2985 2987 2988 2990 2991 2991 2992 2992 2992 2992 2992 2992 2992 2991 2991 2990 2989 2989 2988 2987 2985 2984 2982 2980 2978 2975 2973 2970 2966 2963 2959 2955 2951 2947 2942 2937 2933 2930 2926 2923 2920 2916 2913 2910 2908 2905 2903 2901 2899 2898 2897 2896 2896 2896 2895 2895 2895 2894 2894 2893 2892 2891 2890 2889 2888 2888 2887 2887 2886 2886 2886 2886
2959 2961 2964 2966 2968 2970 2972 2974 2975 2977 2979 2982 2984 2986 2988 2989 2990 2991 2991 2991 2991 2991 2991 2992 2991 2991 2991 2990 2990 2989 2988 2987 2986 2984 2983 2981 2979 2977 2974 2971 2968 2965 2961 2957 2954 2949 2945 2940 2935 2931 2928 2925 2921 2918 2914 2911 2908 2905 2903 2901 2899 2897 2896 2895 2894 2894 2894 2894 2894 2893 2893 2892 2890 2889 2888 2887 2886 2886 2885 2884 2884 2883 2884 2884 2884
2963 2965 2967 2968 2970 2972 2973 2975 2977 2979 2981 2983 2985 2987 2988 2989 2990 2990 2991 2991 2991 2991 2991 2991 2991 2991 2990 2990 2989 2988 2987 2986 2985 2983 2981 2979 2978 2975 2973 2970 2967 2963 2960 2956 2952 2947 2943 2938 2934 2930 2927 2923 2920 2916 2912 2909 2906 2903 2901 2899 2897 2896 2894 2893 2893 2893 2893 2893 2892 2892 2891 2889 2888 2887 2886 2885 2884 2884 2883 2882 2882 2882 2883 2883 2884
2966 2968 2969 2970 2971 2973 2975 2977 2979 2981 2983 2985 2986 2987 2988 2989 2990 2990 2990 2990 2990 2990 2991 2991 2991 2990 2990 2989 2988 2987 2986 2985 2983 2981 2980 2978 2976 2974 2972 2969 2966 2962 2959 2955 2950 2946 2942 2938 2933 2930 2926 2923 2919 2914 2911 2907 2904 2901 2900 2898 2896 2894 2893 2892 2892 2892 2892 2891 2891 2890 2889 2887 2886 2885 2885 2884 2884 2883 2882 2882 2881 2882 2883 2884 2885
2969 2970 2971 2972 2974 2976 2978 2979 2981 2983 2984 2985 2987 2988 2988 2989 2989 2990 2990 2990 2990 2991 2991 2991 2990 2990 2989 2988 2987 2986 2985 2984 2982 2980 2979 2977 2975 2973 2971 2968 2965 2962 2958 2954 2950 2946 2942 2938 2934 2930 2927 2923 2918 2914 2910 2907 2903 2901 2899 2897 2895 2893 2892 2892 2891 2891 2891 2891 2890 2890 2888 2887 2886 2885 2885 2884 2883 2883 2882 2882 2882 2883 2884 2885 2886
2971 2972 2973 2975 2976 2978 2979 2981 2982 2984 2985 2986 2987 2987 2988 2988 2989 2989 2989 2990 2990 2990 2990 2990 2989 2989 2988 2987 2986 2985 2984 2982 2981 2979 2978 2976 2974 2972 2970 2967 2964 2961 2957 2953 2950 2946 2942 2938 2934 2931 2927 2923 2918 2914 2910 2907 2904 2901 2898 2896 2894 2893 2892 2891 2891 2891 2891 2891 2890 2890 2889 2887 2886 2886 2885 2885 2884 2883 2883 2883 2883 2884 2885 2886 2888
2973 2974 2976 2977 2978 2980 2981 2982 2983 2984 2985 2986 2987 2987 2988 2988 2988 2989 2989 2990 2990 2990 2989 2989 2988 2988 2987 2986 2986 2984 2983 2981 2980 2979 2977 2975 2973 2971 2969 2966 2963 2960 2957 2953 2950 2946 2942 2938 2935 2931 2927 2922 2918 2914 2910 2907 2904 2901 2898 2897 2895 2893 2892 2891 2891 2891 2891 2891 2891 2890 2890 2889 2888 2887 2887 2886 2885 2885 2885 2885 2886 2886 2887 2888 2889
2975 2976 2978 2979 2980 2981 2982 2983 2984 2984 2985 2986 2986 2987 2987 2988 2988 2989 2989 2989 2989 2989 2989 2988 2988 2987 2986 2986 2985 2983 2982 2981 2979 2978 2977 2975 2973 2970 2968 2965 2962 2960 2957 2953 2950 2946 2943 2939 2935 2932 2927 2923 2919 2915 2911 2907 2904 2901 2899 2897 2895 2893 2892 2891 2891 2891 2891 2891 2890 2890 2890 2890 2889 2889 2888 2888 2888 2887 2887 2888 2888 2889 2890 2890 2891
2977 2978 2979 2980 2981 2982 2982 2983 2984 2984 2985 2986 2986 2987 2987 2988 2988 2989 2989 2989 2989 2988 2988 2988 2987 2987 2986 2985 2984 2983 2981 2980 2979 2977 2976 2974 2972 2970 2967 2964 2962 2959 2956 2953 2950 2947 2943 2939 2936 2932 2928 2924 2920 2916 2912 2909 2905 2902 2900 2898 2895 2893 2892 2892 2892 2891 2891 2891 2891 2891 2891 2890 2890 2890 2890 2890 2890 2890 2890 2890 2891 2891 2892 2893 2893
2978 2979 2980 2981 2981 2982 2982 2983 2984 2984 2985 2986 2986 2987 2987 2988 2988 2988 2988 2988 2988 2988 2987 2987 2987 2986 2985 2984 2983 2982 2981 2980 2978 2977 2975 2974 2972 2969 2967 2964 2962 2959 2956 2954 2951 2947 2944 2940 2937 2933 2929 2925 2921 2918 2914 2911 2907 2904 2901 2898 2896 2894 2893 2893 2892 2891 2891 2891 2891 2891 2891 2891 2891 2891 2891 2891 2891 2892 2892 2892 2893 2893 2894 2895 2896
2979 2979 2980 2980 2981 2981 2982 2983 2983 2984 2985 2986 2986 2987 2987 2987 2988 2988 2987 2987 2987 2987 2987 2986 2986 2985 2984 2983 2982 2981 2980 2979 2978 2976 2975 2974 2972 2969 2966 2964 2961 2959 2957 2954 2951 2948 2945 2942 2938 2934 2931 2927 2923 2920 2917 2913 2909 2905 2902 2900 2898 2896 2895 2893 2893 2892 2892 2892 2892 2892 2892 2892 2892 2892 2891 2891 2892 2893 2893 2893 2894 2895 2895 2896 2897
2979 2979 2980 2981 2981 2981 2982 2983 2983 2984 2985 2985 2986 2986 2987 2987 2987 2987 2987 2986 2986 2986 2986 2985 2984 2983 2983 2982 2981 2980 2979 2978 2977 2976 2974 2973 2971 2969 2966 2964 2962 2959 2957 2954 2951 2948 2946 2943 2939 2936 2932 2929 2925 2922 2919 2916 2911 2908 2905 2903 2901 2899 2896 2895 2893 2893 2893 2892 2892 2892 2892 2891 2891 2891 2891 2892 2892 2893 2894 2894 2895 2895 2896 2897 2898